Tracking 19572 objects as of 23-Feb-2019
HD Live streaming from Space Station
objects crossing your sky now

SUPERBIRD A

Track SUPERBIRD A now!
SUPERBIRD A is classified as:


NORAD ID: 20040
Int'l Code: 1989-041A
Perigee: 35,890.2 km
Apogee: 35,993.1 km
Inclination: 14.9 °
Period: 1,443.7 minutes
Semi major axis: 42312 km
RCS: 4.409 m2 (large)
Launch date: June 5, 1989
Source: Japan (JPN)
Launch site: FRENCH GUIANA (FRGUI)
aabbcc
Your satellite tracking list
Your tracking list is empty




NASA's NSSDC Master Catalog

Two Line Element Set (TLE):
1 20040U 89041A   19053.48721500  .00000052  00000-0  00000+0 0  9999
2 20040  14.9170 354.1845 0012160 338.6540 198.1914  0.99746390107793
Source of the keplerian elements: AFSPC